ABS-2A (MONGOLSAT-1)

Last updated on Sun Jun 21 2026 00:03:06 GMT+0000 (Coordinated Universal Time)

1 41588U 16038A 26171.40684536 -.00000089 00000+0 00000+0 0 9993 2 41588 0.0178 20.6845 0001977 0.5247 108.6147 1.00272219 36742
UTC large
Height (km)
Speed (km/s)
/
Latitude / Longitude
Inclination (degrees)
Orbital Period (minutes)
Azimuth
Elevation
Range (km)
Doppler Factor

Next 0 passes for location: London (51.5072 / 0.1276)

No passes found over London.
ABS-2A (MONGOLSAT-1)